User: anonymous   Login
Location: Unspecified
(0.0000°N, 0.0000°E)
Time: 02:39:05
(UTC+02:00)
Language:

Cosmos 1125 Rocket - Orbit

View from above orbital plane
View from above orbital plane
View from above satellite
View from above satellite

Ground track
Ground track

The orbit data is extracted from the following two-line orbital elements,

1 11511U 79078B   17116.91730793 +.00000041 +00000-0 +22854-4 0  9995
2 11511 074.0383 049.5340 0016528 303.3696 056.5875 14.36764218970995
Epoch (UTC): 26 April 2017 22:00:55
Eccentricity: 0.0016528
inclination: 74.0383°
perigee height: 757 km
apogee height: 781 km
right ascension of ascending node: 49.5340°
argument of perigee: 303.3696°
revolutions per day: 14.36764218
mean anomaly at epoch: 56.5875°
orbit number at epoch: 97099

The dashed part of the orbit path shows where the satellite is in the earth's shadow,  

DLR